Showing default

HG-02, 60327

Orbit data source: Space-Track

HG-02, 60327 is a payload satellite owned by CNSA (CN) in GEO that was launched on Thu, 01 Aug 2024 UTC via a CHANG ZHENG 3B launch vehicle from the Xichang Space Center, China (XSC). Payload-class satellites include a variety of spacecraft equipped with specific instruments for various scientific and technological missions. These include communications satellites like Starlink; space stations such as the ISS; scientific satellites like the Hubble; Earth observation satellites from companies like Planet Labs, Umbra, and HawkEye 360; GPS; miniature CubeSats for education and research; and military/defense satellites.

Not visible in the next 10 days
Identifier
60327, 2024-135A
Orbit
GEO
Country
Flag of CNCN / PRC
Related business
Manufacturer
CAST
Mission
Operational spacecraft
Bus & Motor
DFH-4?, FY-25?
Mass
~4,000 kg wet, ~2,000 kg dry
Launch date (UTC)
2024-08-01 (1 year ago)
Launch vehicle
CHANG ZHENG 3B
Launch site
Xichang Space Center, China (XSC)
Object type
Payload
Rocket body
Debris
Shape & HBR
Unknown
Radar Cross Section
Large (>1 m²)

Expand to show TLE details & history
Last TLE update: 5 days ago

TLE from 5 days ago
0 HG-02
1 60327U 24135A   25253.90465247 -.00000177  00000-0  00000-0 0  9993
2 60327   0.0303 106.6314 0001489 140.2076 222.0658  1.00269413  4701
Epoch: 2025-09-10T21:42Z
TLE epoch observation values (Epoch: 2025-09-10T21:42:41.973Z)
Latitude
-0.01305°
Longitude
153.03178°
Altitude
35,791.386 km
Speed
3.074 km/s
True Right ascension
07h 15m 31s
True Declination
0° 00' 47"
Sunlit
Object was in daylight at epoch
Visualization orbit readout
Latitude
Unknown
Longitude
Unknown
Altitude
Unknown
Speed
Unknown
Apparent Right ascension
Unknown
Apparent Declination
Unknown
Sunlit
N/A
Visualization observer readout
Local Sidereal Time
14:49:05
Azimuth
Unknown
Elevation
Unknown
Doppler factor
Unknown
Orbital elements
Apogee altitude
35,794.609 km
Perigee altitude
35,782.052 km
Semi-major axis
42,166.467 km
Eccentricity
0.00015
Inclination
0.0303°
RAAN
106.6314°
Arg. of periapsis
140.2076°
True anomaly
222.05437°
Mean anomaly
222.0658°
Eccentric anomaly
222.06008°
Mean motion
0.25066 °/min
Orbital period
1,436.18 mins
BSTAR
0
Loading maneuver chart data...
Computing Atmospheric mass density...
Loading historical data...
Loading historical data...
Loading historical data...
Loading historical data...
Loading historical data...
Loading historical data...
Loading historical data...
Other satellites on launch #135 in the year 2024 (2024-08-01 UTC)

Documentation

Showing up to 5 results
|